Flag Weather past 2 weeks in Missoula, Montana, U.S.A.

Now
34 °F

Light rain. Fog.


Feels Like: 27 °F
Forecast: 37 / 43 °F
Wind: 8 mph from Northwest

Location: Missoula International Airport

Current Time: Nov 25, 2014 at 5:35:34 PM

Latest Report: Nov 25, 2014 at 4:53 PM


Visibility: 6 mi

Pressure: 30.26 "Hg

Humidity: 100%

Dew point: 34 °F

Location of MissoulaLocation

Historic Weather in Missoula — Graph

°F

Missoula temperature yesterday

Maximum temperature yesterday: 41 °F (at 12:53 PM)
Minimum temperature yesterday: 30 °F (at 5:53 AM)
Average temperature yesterday: 35 °F

Past Weeks' High & Low Weather Summary

 TemperatureHumidityPressure
High44 °F (Nov 22, 12:53 PM)100% (Nov 19, 8:53 AM)30.81 "Hg (Nov 19, 8:53 AM)
Low-4 °F (Nov 13, 7:53 AM)48% (Nov 11, 11:53 AM)29.51 "Hg (Nov 22, 1:53 AM)
Average20 °F77%30.34 "Hg
* Reported Nov 10 3:53 PM — Nov 25 3:53 PM, Missoula, Weather by CustomWeather, © 2014

Note: Actual official high and low records may vary slightly from our data, if they occured in-between our weather recording intervals... More about our weather records

Advertising

Missoula weather history for previous 24 hours

 ConditionsComfort  
Time TempWeatherWind HumidityBarometerVisibility
3:53 PM
Nov 25
35 °FLight rain. Mostly cloudy.7 mph100%30.24 "Hg10 mi
2:53 PM35 °FLight rain. Mostly cloudy.6 mph100%30.21 "Hg8 mi
1:53 PM36 °FLight rain. Fog.7 mph92%30.20 "Hg6 mi
12:53 PM37 °FLight rain. Fog.12 mph86%30.18 "Hg5 mi
11:53 AM35 °FLight rain. Fog.3 mph96%30.17 "Hg3 mi
10:53 AM33 °FLight rain. Fog.No wind100%30.16 "Hg5 mi
9:53 AM33 °FLight rain. Fog.No wind100%30.14 "Hg2 mi
8:53 AM32 °FLight snow. Ice fog.No wind100%30.13 "Hg2 mi
8:00 AM32 °FLight snow. Ice fog.No wind100%30.03 "Hg2 mi
7:03 AM32 °FLight snow. Ice fog.No wind100%30.01 "Hg2 mi
6:53 AM32 °FLight snow. Ice fog.3 mph100%30.09 "Hg3 mi
5:53 AM32 °FLight snow. Overcast.No wind100%30.07 "Hg8 mi
4:53 AM32 °FLight snow. Ice fog.6 mph100%30.06 "Hg5 mi
3:53 AM31 °FOvercast.5 mph100%30.07 "Hg8 mi
2:53 AM32 °FLight snow. Ice fog.3 mph96%30.09 "Hg6 mi
1:53 AM31 °FOvercast.3 mph96%30.09 "Hg10 mi
12:53 AM36 °FOvercast.8 mph75%30.11 "Hg10 mi
11:53 PM
Nov 24
36 °FOvercast.No wind75%30.14 "Hg10 mi
10:53 PM36 °FOvercast.5 mph67%30.17 "Hg10 mi
9:53 PM34 °FOvercast.5 mph76%30.20 "Hg10 mi
8:53 PM33 °FOvercast.No wind82%30.26 "Hg10 mi
7:53 PM36 °FOvercast.3 mph67%30.28 "Hg10 mi
6:53 PM34 °FMostly cloudy.No wind79%30.32 "Hg10 mi
5:53 PM35 °FOvercast.6 mph72%30.35 "Hg10 mi
Weather by CustomWeather, © 2014

See weather overviewHow to use our weather pages